National Weather Service United States Department of Commerce

Latest Hourly Weather Roundup

TOPSWRTT 000
TTAA00 KICT 130712

Wichita AWIPS Roundup
National Weather Service Wichita KS
100 AM CST WED DEC 13 2017

....Central Kansas....
  
CITY           SKY/WX    TMP DP  RH WIND       PRES   REMARKS
RUSSELL        CLEAR     39  19  44 SW10      29.85F WCI  32          
SALINA         CLEAR     34  22  61 S8        29.86F WCI  27          
GREAT BEND     CLEAR     37  16  42 W10       29.89F WCI  30          
ELLSWORTH      CLEAR     36  18  48 W8        29.85F WCI  29          
MCPHERSON      CLEAR     34  25  69 S9        29.88F WCI  26          
HAYS           CLEAR     45  17  32 W17       29.87  WCI  38          

....South Central Kansas....
  
CITY           SKY/WX    TMP DP  RH WIND       PRES   REMARKS
HUTCHINSON     CLOUDY    38  23  55 CALM      29.89F                  
NEWTON         CLEAR     36  25  64 S10       29.90F WCI  28          
KINGMAN        CLEAR     37  23  56 SW9       29.89F WCI  31          
WICHITA (ICT)  CLEAR     33  26  75 S6        29.92F WCI  28          
JABARA ARPT    CLEAR     39  28  64 SW14      29.91F WCI  31          
BEECH ARPT     FAIR      37  26  67 SW8       29.92F WCI  30          
MCCONNELL AFB  NOT AVBL                                               
BENTON         FAIR      34  26  72 S7        29.92F WCI  28          
EL DORADO      FAIR      39  28  65 S10       29.92F WCI  32          
AUGUSTA        FAIR      32  28  86 S7        29.93F WCI  26          
HARPER           N/A     34  19  55 CALM      29.95F                  
WELLINGTON     CLEAR     36  28  75 S8        29.92F WCI  29          
WINFIELD       CLEAR     34  28  79 S5        29.96F WCI  30          
 
....Southeast Kansas....
  
CITY           SKY/WX    TMP DP  RH WIND       PRES   REMARKS
EUREKA         NOT AVBL                                               
IOLA           FAIR      35  28  75 S12       29.96F WCI  26          
CHANUTE        CLEAR     35  27  72 S10       29.96F WCI  27          
PARSONS        CLEAR     34  27  75 S6        29.99F WCI  29          
COFFEYVILLE    CLEAR     36  28  73 S10       29.99F WCI  28          
INDEPENDENCE   CLEAR     34  27  75 S10       29.98F WCI  26          
FORT SCOTT     CLEAR     36  25  64 SW12G18   29.93F WCI  27          
PITTSBURG      CLEAR     32  22  69 S8        29.99F WCI  24          

....Western Kansas....
  
CITY           SKY/WX    TMP DP  RH WIND       PRES   REMARKS
GOODLAND       CLOUDY    38  15  39 W14       29.96F WCI  30          
HILL CITY      CLEAR     43  20  39 W10       29.87F WCI  37          
LIBERAL        CLEAR     39  15  37 W10       29.99F WCI  32          
GARDEN CITY    CLOUDY    38  15  39 W12       29.95F WCI  30          
DODGE CITY     CLEAR     46  14  27 W15       29.94F                  
PRATT          CLEAR     36  15  43 SW9       29.91F WCI  29          
MEDICINE LODGE   N/A     29  21  72 N5        29.92F WCI  24          

....Northeast Kansas....
  
CITY           SKY/WX    TMP DP  RH WIND       PRES   REMARKS
CONCORDIA      CLOUDY    42  20  41 SW10      29.80F WCI  36          
TOPEKA         CLEAR     40  29  64 SW8       29.86F WCI  34          
MANHATTAN      CLEAR     39  25  57 SW10      29.85F WCI  32          
LAWRENCE       CLEAR     37  28  70 S3        29.87F                  
OLATHE         CLEAR     32  26  78 S10       29.88F WCI  24          
EMPORIA        CLEAR     34  26  72 CALM      29.89F                  

....Oklahoma....
  
CITY           SKY/WX    TMP DP  RH WIND       PRES   REMARKS
GAGE           CLEAR     36  14  40 SW9       29.99F WCI  29          
PONCA CITY     CLEAR     39  27  62 S6        29.97F WCI  35          
BARTLESVILLE   CLEAR     30  25  81 S6        30.01F WCI  24          
TULSA          CLEAR     37  27  67 S9        30.03F WCI  30          
OKLAHOMA CITY  CLEAR     37  26  64 S12       30.02F WCI  29          

Note: "fair" indicates few or no clouds below 12,000 feet with no
significant weather and/or obstructions to visibility.